Regional Weather Roundup
Issued by NWS Spokane, WA

Home | Current Version | Previous Version | Text Only | Print | Product List | Glossary On
Versions: 1 2 3 4 5 6 7 8 9 10 11 12 13 14 15 16 17 18 19 20 21 22 23 24 25 26 27 28 29 30 31 32 33 34 35 36 37 38 39 40 41 42 43 44 45 46 47 48 49 50
000
NZUS01 KOTX 240210
RWROTX
EASTERN WASHINGTON/NORTHERN IDAHO ROUNDUP
NATIONAL WEATHER SERVICE, SPOKANE WA
700 PM PDT WED JUL 23 2014

Note: "fair" indicated few or no clouds below 12,000 feet with no
significant weather and/or obstructions to visibility.

...NORTHEAST WASHINGTON AND NORTHERN IDAHO PANHANDLE...

CITY           SKY/WX    TMP DP  RH WIND       PRES   REMARKS
SPOKANE INTL   MOSUNNY   66  51  58 SW10      29.97S
SPOKANE DOWNTO MOSUNNY   68  53  58 SW6       29.97F
COEUR D ALENE  CLOUDY    64  55  72 W10G16    29.97F THUNDER
SANDPOINT      CLOUDY    63  63 100 SW7       29.95F

...SOUTHEAST WASHINGTON AND SOUTHERN IDAHO PANHANDLE...

CITY           SKY/WX    TMP DP  RH WIND       PRES   REMARKS
WALLA WALLA    MOSUNNY   69  53  56 SW12      30.05R
PULLMAN/MOSCOW MOSUNNY   60  51  72 W12G17    30.04R
LEWISTON       MOSUNNY   68  51  54 NW10G21   29.97R
LOWELL           N/A     76  54  46 VRB5      29.92R

...COLUMBIA BASIN...

CITY           SKY/WX    TMP DP  RH WIND       PRES   REMARKS
EPHRATA        SUNNY     71  51  49 SW13      29.91R
MOSES LAKE     SUNNY     71  46  40 SW16G25   29.94R
TRI CITIES     MOSUNNY   75  49  39 W15       29.98S
HERMISTON      MOSUNNY   69  48  47 W22       30.03R
PENDLETON      PTSUNNY   65  49  56 W22G29    30.05R

...EAST SLOPES CASCADES...

CITY           SKY/WX    TMP DP  RH WIND       PRES   REMARKS
THE DALLES     MOSUNNY   64  51  62 W18       30.07R
YAKIMA         PTSUNNY   70  45  40 NW9       29.98R
ELLENSBURG     PTSUNNY   64  47  53 NW22G30   29.99R
WENATCHEE      MOSUNNY   67  49  52 W16G24    29.91S
OMAK           MOSUNNY   70  58  65 S10       29.84F

...SOUTHERN BRITISH COLUMBIA...

CITY           SKY/WX    TMP DP  RH WIND       PRES   REMARKS
PENTICTON      TSTM      63  59  88 VRB2      29.87R
CASTLEGAR      CLOUDY    66  63  88 S5        29.89R

...WESTERN MONTANA...

CITY           SKY/WX    TMP DP  RH WIND       PRES   REMARKS
MISSOULA       MOSUNNY   85  41  21 S24G32    29.87R

...NEIGHBORING CITIES...

CITY           SKY/WX    TMP DP  RH WIND       PRES   REMARKS
SEATTLE        PTSUNNY   61  58  90 S9        30.05F
CALGARY        PTSUNNY   75  50  41 SE13      29.90F



USA.gov is the U.S. government's official web portal to all federal, state and local government web resources and services.